Regional Weather Roundup
Issued by NWS Green Bay, WI

Home | Current Version | Previous Version | Graphics & Text | Print | Product List | Glossary Off
Versions: 1 2 3 4 5 6 7 8 9 10 11 12 13 14 15 16 17 18 19 20 21 22 23 24 25 26 27 28 29 30 31 32 33 34 35 36 37 38 39 40 41 42 43 44 45 46 47 48 49 50

000
ASUS43 KGRB 251811
RWRGRB

NORTH-CENTRAL AND NORTHEAST WISCONSIN REGIONAL WEATHER ROUNDUP
NATIONAL WEATHER SERVICE GREEN BAY WI
100 PM CDT WED MAY 25 2016

WIZ005-009-010>012-018-019-251900-
NORTH CENTRAL WISCONSIN

CITY           SKY/WX    TMP DP  RH WIND       PRES   REMARKS
IRONWOOD       CLOUDY    72  57  60 E10       29.97F
MANITOWISH WTR NOT AVBL
ARBOR VITAE    PTSUNNY   72  55  55 SE9       30.01F
EAGLE RIVER      N/A     72  53  51 E7        30.02F
LAND O LAKES   CLOUDY    71  56  61 E8        30.04F
RHINELANDER    MOSUNNY   73  59  61 NE9       30.02F
PHILLIPS       CLOUDY    73  59  60 E9        29.97F
ANTIGO         MOSUNNY   71  61  69 SE12      30.02F
TOMAHAWK       MOSUNNY   73  59  59 E6        30.00F
MERRILL        SUNNY     71  61  70 E9        29.99F
$$

WIZ013-073-251900-
NORTHEAST WISCONSIN

CITY           SKY/WX    TMP DP  RH WIND       PRES   REMARKS
IRON MOUNTAIN  CLOUDY    66  56  70 VRB6      30.03F
MARINETTE      MOSUNNY   59  54  83 E14       30.05F
OCONTO         CLOUDY    65  59  80 E8        30.02F
$$

WIZ017-030-035>037-045-251900-
CENTRAL WISCONSIN

CITY           SKY/WX    TMP DP  RH WIND       PRES   REMARKS
MEDFORD        PTSUNNY   73  61  65 E13G21    29.96F
WAUSAU         CLOUDY    73  59  61 SE9       29.97F
MOSINEE        PTSUNNY   66  61  82 E13       30.00F
MARSHFIELD     CLOUDY    75  60  59 E12G24    29.94F
WISC RAPIDS    MOSUNNY   78  58  49 E14       29.95F
STEVENS POINT  PTSUNNY   69  58  67 E13       29.99S
WAUPACA        CLOUDY    77  59  54 E9        29.99F
SHAWANO        MOSUNNY   72  60  65 NE10      30.01F
CLINTONVILLE   PTSUNNY   72  59  64 E9        30.01S
WAUTOMA        MOSUNNY   74  60  61 E13G18    29.96F
$$

WIZ038-039-048-051-251900-
FOX VALLEY

CITY           SKY/WX    TMP DP  RH WIND       PRES   REMARKS
NWS GREEN BAY  PTSUNNY   68  59  73 NE12      30.02F
APPLETON       PTSUNNY   70  57  64 NE8       29.99F
OSHKOSH        CLOUDY    73  61  65 E12       29.98F
FOND DU LAC    CLOUDY    76  60  57 E15       29.97F
$$

WIZ022-050-052-251900-
EAST CENTRAL WISCONSIN

CITY           SKY/WX    TMP DP  RH WIND       PRES   REMARKS
EPHRAIM        MOCLDY    60  56  85 NE7       30.04F
STURGEON BAY   NOT AVBL
MANITOWOC      CLOUDY    61  55  81 NE10      30.03F
SHEBOYGAN      CLOUDY    62  54  74 NE14      30.02F
$$

LMZ563-521-522-541>543-251900-
LAKESHORE

STATION/POSITION TIME  TEMP    WIND        PRES    VSBY  WAVE
                       AIR SEA DIR/SP/G                  HT/PER
                 (UTC) (F)     (DEG/KT/KT) (MB)    (MI)  (FT/S)
SHEBOYGAN LKSHOR 1800   49      40/ 11/ 12 1017.1F
KEWAUNEE LKSHORE 1700   51      40/  5/  7 1016.9S
ALGOMA MARINA    1702           60/ 17/ 20   N/A
NORTHPORT PIER   1800   58      70/  8/ 15 1017.9F
N MID LAKE BUOY  1750   48 45   10/  8/ 10 1018.0F         0
SISTER BAY LKSHO 1650   55     340/ 12/ 14   N/A
CHAMBERS ISLAND  1700   55      50/  9/ 11 1018.3S
MENOMINEE LKSHOR 1700   55      50/ 13/ 16 1016.7F
$$




USA.gov is the U.S. government's official web portal to all federal, state and local government web resources and services.